• MPC Preparation (Info)

  • MPEC 2019-V72 : 2019 VH2

    The following Minor Planet Electronic Circular may be linked-to from your own Web pages, but must not otherwise be redistributed electronically.

    A form allowing access to any MPEC is at the bottom of this page.


    Read MPEC 2019-V71 Read MPEC 2019-V73


    M.P.E.C. 2019-V72                              Issued 2019 November 5, 16:26 UT
    
         The Minor Planet Electronic Circulars contain information on unusual
             minor planets and routine data on comets.  They are published
        on behalf of Division F of the International Astronomical Union by the
              Minor Planet Center, Smithsonian Astrophysical Observatory,
                              Cambridge, MA 02138, U.S.A.
    
                 Prepared using the Tamkin Foundation Computer Network
    
                                  MPC@CFA.HARVARD.EDU
                URL https://www.minorplanetcenter.net/    ISSN 1523-6714
    
                                    2019 VH2                                 
    
    
    Observations:
         K19V02H  C2019 11 02.50916202 51 36.867+11 19 20.94         19.01GVEV072F52
         K19V02H  C2019 11 02.51988102 51 41.586+11 31 32.68               VEV072F52
         K19V02H* C2019 11 04.26463 03 04 40.82 +29 43 44.7          21.1 GVEV072G96
         K19V02H  C2019 11 04.26980 03 04 41.34 +29 45 28.3          21.4 GVEV072G96
         K19V02H  C2019 11 04.27499 03 04 41.87 +29 47 12.8          20.7 GVEV072G96
         K19V02H  C2019 11 04.28018 03 04 42.39 +29 48 57.6          21.1 GVEV072G96
         K19V02H  C2019 11 04.42787 03 04 56.78 +30 35 09.4          21.1 GVEV072G96
         K19V02H  C2019 11 04.42827 03 04 56.91 +30 35 16.7          21.0 GVEV072G96
         K19V02H  C2019 11 04.42908 03 04 56.98 +30 35 30.7          21.1 GVEV072G96
         K19V02H  C2019 11 05.29351 03 08 13.85 +34 08 53.5          22.0 GVEV072G96
         K19V02H  C2019 11 05.29427 03 08 13.89 +34 09 02.6          22.0 GVEV072G96
         K19V02H  C2019 11 05.29502 03 08 13.84 +34 09 12.2          21.8 GVEV072G96
         K19V02H  C2019 11 05.29577 03 08 13.86 +34 09 21.6          21.5 GVEV072G96
    
    Observer details:
    F52 Pan-STARRS 2, Haleakala.  Observers J. Bulger, K. Chambers, T. Dukes, T. 
       Lowe, E. Magnier, A. Schultz, M. Willman.  Measurers S. Chastel, M. Huber, 
       Y. Ramanjooloo, R. Wainscoat, R. Weryk.  1.8-m Ritchey-Chretien + CCD.
    G96 Mt. Lemmon Survey.  Observer E. J. Christensen.  Measurers E. J. 
       Christensen, G. A. Farneth, D. C. Fuls, A. R. Gibbs, A. D. Grauer, H. 
       Groeller, R. A. Kowalski, S. M. Larson, G. J. Leonard, T. A. Pruyne, D. 
       Rankin, R. L. Seaman, F. C. Shelly, K. W. Wierzchos.  1.5-m reflector + 10K 
       CCD.
    
    Orbital elements:
    2019 VH2                                                 Earth MOID = 0.0068 AU
    Epoch 2019 Apr. 27.0 TT = JDT 2458600.5                 Veres
    M 287.90934              (2000.0)            P               Q
    n   0.47054075     Peri.  313.15882     +0.98716030     +0.12502784
    a   1.6370850      Node    39.96445     -0.05876397     +0.86297445
    e   0.4456502      Incl.    8.90350     -0.14853058     +0.48953360
    P   2.09           H   28.8           G   0.15           U   7
    Residuals in seconds of arc
    191102 F52  0.1-  0.3-    191104 G96  0.5+  0.1+    191105 G96  0.4+  0.3-
    191102 F52  0.1-  0.3+    191104 G96  0.4-  0.5-    191105 G96  0.6-  0.3+
    191104 G96  0.2-  1.1+    191104 G96  0.6+  0.2-    191105 G96  0.7-  0.6+
    191104 G96  0.1-  0.1-    191104 G96  0.2+  0.4-
    191104 G96  0.2+  0.4-    191105 G96  0.2+  0.2-
    
    Ephemeris:
    2019 VH2                 a,e,i = 1.64, 0.45, 9                   q = 0.9075
    Date    TT    R. A. (2000) Decl.     Delta      r    Elong.  Phase     V
    2019 10 06    15 16 17.3 -48 37 42   0.1649  0.9137    54.3   117.2    29.3
    ...
    2019 10 21    15 30 56.3 -53 49 32   0.06984 0.9510    48.7   128.1    28.4
    ...
    2019 10 29    16 10 42.2 -67 56 41   0.02051 0.9829    58.1   120.9    25.2
    ...
    2019 11 04    03 03 18.4 +28 08 57   0.01978 1.0111   165.3    14.4    21.1
    2019 11 05    03 07 17.1 +33 06 13   0.02576 1.0161   161.1    18.4    21.8
    2019 11 06    03 09 58.2 +36 09 35   0.03188 1.0212   158.7    20.7    22.4
    ...
    2019 11 12    03 16 36.3 +42 44 43   0.06968 1.0533   154.6    23.7    24.2
    ...
    2019 11 20    03 19 02.6 +44 26 47   0.1221  1.0998   154.7    22.6    25.5
    ...
    2019 12 05    03 23 15.7 +43 48 45   0.2296  1.1944   152.9    22.1    27.1
    
    A. U. Tomatic                (C) Copyright 2019 MPC           M.P.E.C. 2019-V72
    


    Read MPEC 2019-V71 Read MPEC 2019-V73


    MPEC number:

    Enter an MPEC number in one of the following forms:

    • 1997-B01 (the full form)
    • J97B01 (the packed version of the full form)
    • B01 (the abbreviated form)